Weather History for KABI - October, 2012

Change the Weather History Date:

Monday, October 8, 2012

  Actual Average Record
Temperature  
Mean Temperature 50 °F 68 °F  
Max Temperature 66 °F 80 °F 102 °F (1979)
Min Temperature 34 °F 57 °F 34 °F (1921)
Degree Days  
Heating Degree Days 15 2  
Month to date heating degree days 48 12  
Since 1 July heating degree days 54 23  
Cooling Degree Days 0 5  
Month to date cooling degree days 16 46  
Year to date cooling degree days 2889 2317  
Moisture  
Dew Point 39 °F    
Average Humidity 68    
Maximum Humidity 96    
Minimum Humidity 40    
Precipitation  
Precipitation 0.00 in 0.09 in 3.57 in (2011)
Month to date precipitation 0.00 0.70  
Year to date precipitation 22.14 19.90  
Sea Level Pressure  
Sea Level Pressure 30.15 in    
Wind  
Wind Speed 7 mph (South)    
Max Wind Speed 18 mph    
Max Gust Speed 24 mph    
Visibility 10 miles    
Events      
T = Trace of Precipitation, MM = Missing Value Source: NWS Daily Summary

Daily Weather History Graph

Daily Weather History Graph

Search for Another Location

Airport or City:

Trip Planner

Search our weather history database for the weather conditions in past years. The results will help you decide how hot, cold, wet, or windy it might be!

Date:

Astronomy

Oct. 08, 2012 Rise Set
Actual Time 7:37 AM CDT 7:13 PM CDT
Civil Twilight 7:13 AM CDT 7:38 PM CDT
Nautical Twilight 6:44 AM CDT 8:06 PM CDT
Astronomical Twilight 6:16 AM CDT 8:35 PM CDT
Moon 12:41 AM CDT (10/8) 2:43 PM CDT (10/8)
Length of Visible Light 12h 25m
Length of Day
11h 35m
Last Quarter, 46% of the Moon is Illuminated
Oct 8
Last Quarter
Oct 15
New
Oct 21
First Quarter
Oct 29
Full
Nov 6
Last Quarter

Hourly Weather History & Observations

Time (CDT) Temp. Windchill Dew Point Humidity Pressure Visibility Wind Dir Wind Speed Gust Speed Precip Events Conditions
12:52 AM 42.1 °F - 33.1 °F 70% 30.23 in 10.0 mi Calm Calm - N/A   Clear
1:52 AM 39.0 °F 36.8 °F 34.0 °F 82% 30.24 in 10.0 mi SSE 3.5 mph - N/A   Clear
2:52 AM 37.9 °F - 34.0 °F 86% 30.24 in 10.0 mi Calm Calm - N/A   Clear
3:52 AM 37.0 °F 34.5 °F 35.1 °F 93% 30.23 in 10.0 mi SSW 3.5 mph - N/A   Clear
4:52 AM 36.0 °F - 34.0 °F 93% 30.22 in 10.0 mi Calm Calm - N/A   Clear
5:52 AM 35.1 °F 31.0 °F 33.1 °F 92% 30.23 in 10.0 mi South 4.6 mph - N/A   Clear
6:52 AM 34.0 °F - 32.0 °F 92% 30.24 in 10.0 mi Calm Calm - N/A   Clear
7:52 AM 34.0 °F 28.8 °F 32.0 °F 92% 30.24 in 10.0 mi SE 5.8 mph - N/A   Clear
8:52 AM 41.0 °F - 36.0 °F 82% 30.25 in 10.0 mi Calm Calm - N/A   Clear
9:52 AM 46.9 °F - 36.0 °F 66% 30.23 in 10.0 mi SE 4.6 mph - N/A   Clear
10:52 AM 51.1 °F - 33.1 °F 50% 30.22 in 10.0 mi Calm Calm - N/A   Clear
11:52 AM 55.0 °F - 34.0 °F 45% 30.20 in 10.0 mi Calm Calm - N/A   Clear
12:52 PM 57.0 °F - 34.0 °F 42% 30.18 in 10.0 mi SSW 9.2 mph - N/A   Clear
1:52 PM 60.1 °F - 37.0 °F 42% 30.15 in 10.0 mi Variable 6.9 mph - N/A   Clear
2:52 PM 63.0 °F - 41.0 °F 45% 30.09 in 10.0 mi South 11.5 mph - N/A   Clear
3:52 PM 64.9 °F - 45.0 °F 48% 30.06 in 10.0 mi South 13.8 mph - N/A   Clear
4:52 PM 64.9 °F - 46.0 °F 50% 30.04 in 10.0 mi SSW 15.0 mph - N/A   Clear
5:52 PM 64.0 °F - 46.0 °F 52% 30.03 in 10.0 mi SW 15.0 mph - N/A   Clear
7:52 PM 59.0 °F - 46.9 °F 64% 30.02 in 10.0 mi SSE 6.9 mph - N/A   Clear
8:52 PM 55.0 °F - 46.9 °F 74% 30.02 in 10.0 mi SE 6.9 mph - N/A   Clear
9:52 PM 55.9 °F - 46.9 °F 72% 29.99 in 10.0 mi SE 8.1 mph - N/A   Clear
10:52 PM 57.9 °F - 48.0 °F 70% 29.98 in 10.0 mi SSE 11.5 mph - N/A   Clear
11:52 PM 59.0 °F - 50.0 °F 72% 29.96 in 10.0 mi South 16.1 mph 24.2 mph N/A   Clear